DW9004 Weather Reports


Display with metric or nautical units.
time (UTC)temp
F
wind
direction
speed
MPH
gust
MPH
rain 1hr
in
rain 24hr
in
rain mn
in
humidity
%
barometer
mb
20260904171602 60 103 7.0 8.0 0.00 0.00 0.00 63 1010.1
20260904170055 59 123 3.0 6.0 0.00 0.00 0.00 64 1010.1
20260904164540 59 114 4.0 8.0 0.00 0.00 0.00 65 1010.1
20260904163033 57 100 3.0 6.0 0.00 0.00 0.00 67 1010.0
20260904161527 56 118 4.0 8.0 0.00 0.00 0.00 69 1010.0
20260904160042 56 96 4.0 7.0 0.00 0.00 0.00 71 1009.8
20260904154519 55 112 2.0 5.0 0.00 0.00 0.00 74 1009.8
20260904153016 53 93 2.0 4.0 0.00 0.00 0.00 79 1009.7
20260904151511 53 74 1.0 2.0 0.00 0.00 0.00 79 1009.5
20260904150023 51 353 0.0 0.0 0.00 0.00 0.00 84 1009.3
20260904144603 50 353 0.0 1.0 0.00 0.00 0.00 85 1009.3
20260904143059 49 331 0.0 2.0 0.00 0.00 0.00 86 1009.1
20260904141537 50 331 0.0 1.0 0.00 0.00 0.00 86 1008.7
20260904140044 0 0.0 0.0 0.00 0.00 0.00 1008.4
20260904134518 0 0.0 0.0 0.00 0.00 0.00 1008.2
20260904133014 0 0.0 0.0 0.00 0.00 0.00 1008.1
20260904131510 0 0.0 0.0 0.00 0.00 0.00 1008.1
20260904130005 0 0.0 0.0 0.00 0.00 0.00 1007.9
20260904124500 0 0.0 0.0 0.00 0.00 0.00 1007.8
20260904123058 46 249 1.0 2.0 0.00 0.00 0.00 87 1007.8
20260904121557 46 249 1.0 2.0 0.00 0.00 0.00 87 1007.7
20260904120057 46 276 0.0 1.0 0.00 0.00 0.00 86 1007.6
20260904114554 47 275 0.0 1.0 0.00 0.00 0.00 85 1007.6
20260904113036 47 275 0.0 2.0 0.00 0.00 0.00 86 1007.3
20260904111539 46 338 1.0 3.0 0.00 0.00 0.00 88 1007.1
20260904110015 46 296 3.0 5.0 0.00 0.00 0.00 87 1007.0
20260904104513 47 318 3.0 5.0 0.00 0.00 0.00 84 1006.8
20260904103018 48 297 2.0 4.0 0.00 0.00 0.00 81 1006.7
20260904101509 47 145 0.0 3.0 0.00 0.00 0.00 85 1006.5
20260904100006 47 108 1.0 4.0 0.00 0.00 0.00 83 1006.4
20260904094503 48 329 2.0 4.0 0.00 0.00 0.00 81 1006.0
20260904093059 49 314 3.0 5.0 0.00 0.00 0.00 77 1005.8
20260904091558 50 280 0.0 4.0 0.00 0.00 0.00 75 1005.9
20260904090045 51 327 2.0 4.0 0.00 0.00 0.00 72 1005.9
20260904084545 49 277 1.0 5.0 0.00 0.00 0.00 79 1006.0
20260904083140 50 332 1.0 4.0 0.00 0.00 0.00 75 1005.9
20260904081536 52 307 2.0 4.0 0.00 0.00 0.00 70 1005.8
20260904080034 54 315 2.0 3.0 0.00 0.00 0.00 67 1005.8
20260904074536 55 37 0.0 4.0 0.00 0.00 0.00 64 1005.7
20260904073035 54 292 1.0 3.0 0.00 0.00 0.00 66 1005.8
20260904071533 54 221 1.0 3.0 0.00 0.00 0.00 67 1005.7
20260904070012 54 323 1.0 4.0 0.00 0.00 0.00 69 1005.9
20260904064512 54 329 4.0 6.0 0.00 0.00 0.00 68 1005.8
20260904063102 56 345 1.0 6.0 0.00 0.00 0.00 64 1005.6
20260904061551 59 164 1.0 6.0 0.00 0.00 0.00 56 1005.4
20260904060040 59 230 2.0 9.0 0.00 0.00 0.00 56 1005.3
20260904054537 56 157 1.0 8.0 0.00 0.00 0.00 64 1005.2
20260904053035 57 334 0.0 2.0 0.00 0.00 0.00 62 1005.4
20260904051553 58 266 1.0 5.0 0.00 0.00 0.00 62 1005.5
20260904050030 59 249 1.0 5.0 0.00 0.00 0.00 56 1005.4
20260904044529 59 308 3.0 6.0 0.00 0.00 0.00 59 1005.4
20260904043025 61 83 2.0 7.0 0.00 0.00 0.00 51 1004.9
20260904041526 59 268 1.0 3.0 0.00 0.00 0.00 57 1004.7
20260904040011 60 255 1.0 2.0 0.00 0.00 0.00 56 1004.7
20260904034600 61 351 1.0 5.0 0.00 0.00 0.00 53 1004.5
20260904033045 63 299 1.0 8.0 0.00 0.00 0.00 49 1004.3
20260904031543 63 221 6.0 13.0 0.00 0.00 0.00 48 1004.1
20260904030040 63 223 7.0 13.0 0.00 0.00 0.00 49 1003.9
20260904024539 64 224 2.0 7.0 0.00 0.00 0.00 48 1003.9
20260904023037 65 203 3.0 11.0 0.00 0.00 0.00 46 1003.6
20260904020031 66 166 8.0 13.0 0.00 0.00 0.00 43 1003.6
20260904014531 66 164 8.0 14.0 0.00 0.00 0.00 43 1003.8
20260904013011 66 172 8.0 15.0 0.00 0.00 0.00 42 1003.8
20260904011607 66 231 3.0 13.0 0.00 0.00 0.00 42 1003.8
20260904004545 67 169 5.0 20.0 0.00 0.00 0.00 40 1004.0
20260904003027 67 152 12.0 20.0 0.00 0.00 0.00 39 1004.0
20260904001523 68 179 9.0 18.0 0.00 0.00 0.00 38 1004.2
20260904000003 68 169 11.0 20.0 0.00 0.00 0.00 37 1004.2
20260903234600 69 162 4.0 14.0 0.00 0.00 0.00 37 1004.3
20260903233042 69 141 5.0 15.0 0.00 0.00 0.00 35 1004.3
20260903231538 69 245 5.0 14.0 0.00 0.00 0.00 37 1004.5
20260903230022 69 257 9.0 16.0 0.00 0.00 0.00 36 1004.5
20260903224515 70 254 5.0 15.0 0.00 0.00 0.00 36 1004.8
20260903223100 70 236 4.0 22.0 0.00 0.00 0.00 37 1005.0
20260903221556 70 230 5.0 16.0 0.00 0.00 0.00 38 1004.9
20260903220053 70 230 7.0 12.0 0.00 0.00 0.00 38 1004.9
20260903214550 68 244 6.0 13.0 0.00 0.00 0.00 41 1005.1
20260903213042 68 255 9.0 14.0 0.00 0.00 0.00 41 1005.3
20260903211540 68 281 6.0 16.0 0.00 0.00 0.00 44 1005.5
20260903210040 69 237 7.0 15.0 0.00 0.00 0.00 42 1005.6
20260903204532 68 214 7.0 14.0 0.00 0.00 0.00 41 1005.7
20260903203034 68 185 6.0 11.0 0.00 0.00 0.00 41 1005.8
20260903201521 67 161 6.0 11.0 0.00 0.00 0.00 42 1006.1
20260903200009 67 248 1.0 5.0 0.00 0.00 0.00 47 1006.3
20260903194502 65 158 2.0 12.0 0.00 0.00 0.00 48 1006.4
20260903193057 65 171 2.0 6.0 0.00 0.00 0.00 52 1006.4
20260903191553 64 142 7.0 14.0 0.00 0.00 0.00 54 1006.6
20260903190049 64 168 9.0 14.0 0.00 0.00 0.00 56 1006.6
20260903184547 64 223 6.0 14.0 0.00 0.00 0.00 58 1006.8
20260903183040 64 227 5.0 11.0 0.00 0.00 0.00 62 1006.9
20260903181536 64 244 5.0 11.0 0.00 0.00 0.00 61 1006.9
20260903180014 62 236 5.0 14.0 0.00 0.00 0.00 64 1006.9
20260903174518 62 257 2.0 9.0 0.00 0.00 0.00 62 1006.8
20260903173106 62 246 4.0 13.0 0.00 0.00 0.00 65 1006.8